When you browse on this site, cookies collect data to enhance your experience and personalize the content and advertising you see.
Visit our Privacy Policy to learn more. By continuing to use the site, you agree to this use of cookies and data.
  • In Österreich
  • Länderverzeichnis
  • Für 7 Tage
  • Wassertemperatur
  • Satellitenkarten
  • Wetterkarte
  • News
  • Widgets
  • user-avatar
    Anmelden

    Stündliche Wetter Zhmerynka

    Heute, 19 April, Freitag

    Zeit Temperatur Niederschläge Wind Luftdruck Luftfeuchtigkeit
    00:00 +8°C° 0.1 mm 2 m/S 739 mmHg 68%
    01:00 +8°C° 0.1 mm 2 m/S 739 mmHg 72%
    02:00 +7°C° 0 mm 2 m/S 739 mmHg 75%
    03:00 +7°C° 0.1 mm 2 m/S 738 mmHg 77%
    04:00 +5°C° 0.1 mm 3 m/S 738 mmHg 79%
    05:00 +5°C° 0.1 mm 3 m/S 738 mmHg 81%
    06:00 +6°C° 0 mm 4 m/S 739 mmHg 78%
    07:00 +7°C° 0 mm 4 m/S 739 mmHg 75%
    08:00 +8°C° 0 mm 5 m/S 739 mmHg 72%
    09:00 +9°C° 0.1 mm 5 m/S 739 mmHg 65%
    10:00 +10°C° 0.1 mm 5 m/S 740 mmHg 57%
    11:00 +13°C° 0.1 mm 6 m/S 740 mmHg 49%
    12:00 +13°C° 0.3 mm 6 m/S 740 mmHg 49%
    13:00 +13°C° 0.3 mm 6 m/S 740 mmHg 49%
    14:00 +13°C° 0.3 mm 6 m/S 740 mmHg 49%
    15:00 +12°C° 0.2 mm 5 m/S 741 mmHg 51%
    16:00 +12°C° 0.2 mm 5 m/S 741 mmHg 52%
    17:00 +11°C° 0.2 mm 4 m/S 741 mmHg 54%
    18:00 +10°C° 0.1 mm 4 m/S 741 mmHg 59%
    19:00 +9°C° 0.1 mm 3 m/S 742 mmHg 65%
    20:00 +8°C° 0.1 mm 2 m/S 742 mmHg 71%
    21:00 +7°C° 0 mm 2 m/S 742 mmHg 71%
    22:00 +7°C° 0 mm 2 m/S 742 mmHg 71%
    23:00 +7°C° 0 mm 2 m/S 743 mmHg 72%

    Morgen, 20 April, Samstag

    Zeit Temperatur Niederschläge Wind Luftdruck Luftfeuchtigkeit
    00:00 +6°C° 0 mm 2 m/S 743 mmHg 72%
    01:00 +6°C° 0 mm 1 m/S 743 mmHg 73%
    02:00 +5°C° 0 mm 1 m/S 743 mmHg 73%
    03:00 +5°C° 0 mm 1 m/S 743 mmHg 74%
    04:00 +5°C° 0 mm 1 m/S 743 mmHg 74%
    05:00 +3°C° 0 mm 2 m/S 743 mmHg 75%
    06:00 +5°C° 0 mm 2 m/S 743 mmHg 70%
    07:00 +7°C° 0 mm 2 m/S 743 mmHg 65%
    08:00 +8°C° 0 mm 2 m/S 743 mmHg 60%
    09:00 +9°C° 0 mm 2 m/S 743 mmHg 54%
    10:00 +10°C° 0 mm 2 m/S 743 mmHg 48%
    11:00 +12°C° 0 mm 2 m/S 743 mmHg 42%
    12:00 +12°C° 0 mm 2 m/S 743 mmHg 43%
    13:00 +12°C° 0 mm 2 m/S 742 mmHg 43%
    14:00 +12°C° 0 mm 2 m/S 742 mmHg 44%
    15:00 +12°C° 0 mm 2 m/S 742 mmHg 45%
    16:00 +12°C° 0 mm 2 m/S 742 mmHg 46%
    17:00 +12°C° 0 mm 2 m/S 741 mmHg 48%
    18:00 +11°C° 0 mm 1 m/S 741 mmHg 52%
    19:00 +10°C° 0 mm 1 m/S 741 mmHg 56%
    20:00 +9°C° 0 mm 1 m/S 741 mmHg 60%
    21:00 +9°C° 0 mm 1 m/S 741 mmHg 61%
    22:00 +9°C° 0 mm 1 m/S 740 mmHg 62%
    23:00 +8°C° 0 mm 2 m/S 740 mmHg 63%

    übermorgen, 21 April, Sonntag

    Zeit Temperatur Niederschläge Wind Luftdruck Luftfeuchtigkeit
    00:00 +7°C° 0 mm 2 m/S 740 mmHg 64%
    01:00 +7°C° 0 mm 2 m/S 740 mmHg 65%
    02:00 +7°C° 0 mm 2 m/S 739 mmHg 66%
    03:00 +7°C° 0.2 mm 2 m/S 739 mmHg 69%
    04:00 +7°C° 0.2 mm 1 m/S 739 mmHg 71%
    05:00 +7°C° 0.2 mm 1 m/S 739 mmHg 74%
    06:00 +7°C° 0.3 mm 1 m/S 739 mmHg 74%
    07:00 +7°C° 0.3 mm 2 m/S 739 mmHg 73%
    08:00 +7°C° 0.3 mm 2 m/S 739 mmHg 72%
    09:00 +9°C° 0.1 mm 2 m/S 739 mmHg 66%
    10:00 +10°C° 0.1 mm 3 m/S 739 mmHg 60%
    11:00 +11°C° 0.1 mm 3 m/S 739 mmHg 53%
    12:00 +12°C° 0 mm 4 m/S 739 mmHg 52%
    13:00 +12°C° 0 mm 4 m/S 739 mmHg 50%
    14:00 +13°C° 0 mm 4 m/S 739 mmHg 49%
    15:00 +13°C° 0.1 mm 4 m/S 738 mmHg 50%
    16:00 +12°C° 0.1 mm 4 m/S 738 mmHg 51%
    17:00 +12°C° 0.1 mm 4 m/S 738 mmHg 53%
    18:00 +11°C° 0 mm 4 m/S 738 mmHg 58%
    19:00 +8°C° 0 mm 4 m/S 738 mmHg 63%
    20:00 +8°C° 0 mm 3 m/S 739 mmHg 68%
    21:00 +7°C° 0 mm 3 m/S 739 mmHg 68%
    22:00 +7°C° 0 mm 3 m/S 739 mmHg 68%
    23:00 +5°C° 0 mm 3 m/S 739 mmHg 68%

    22 April, Montag

    Zeit Temperatur Niederschläge Wind Luftdruck Luftfeuchtigkeit
    00:00 +5°C° 0 mm 3 m/S 740 mmHg 69%
    01:00 +5°C° 0 mm 3 m/S 740 mmHg 69%
    02:00 +4°C° 0 mm 3 m/S 740 mmHg 70%
    03:00 +4°C° 0 mm 3 m/S 740 mmHg 71%
    04:00 +4°C° 0 mm 3 m/S 740 mmHg 72%
    05:00 +3°C° 0 mm 3 m/S 740 mmHg 73%
    06:00 +5°C° 0 mm 4 m/S 741 mmHg 68%
    07:00 +7°C° 0 mm 4 m/S 741 mmHg 62%
    08:00 +8°C° 0 mm 5 m/S 741 mmHg 57%
    09:00 +9°C° 0 mm 5 m/S 742 mmHg 52%
    10:00 +10°C° 0 mm 5 m/S 742 mmHg 48%
    11:00 +11°C° 0 mm 6 m/S 742 mmHg 43%
    12:00 +11°C° 0 mm 6 m/S 742 mmHg 43%
    13:00 +12°C° 0 mm 5 m/S 742 mmHg 44%
    14:00 +12°C° 0 mm 5 m/S 742 mmHg 45%
    15:00 +12°C° 0 mm 5 m/S 742 mmHg 46%
    16:00 +12°C° 0 mm 5 m/S 742 mmHg 47%
    17:00 +12°C° 0 mm 5 m/S 742 mmHg 48%
    18:00 +11°C° 0 mm 4 m/S 742 mmHg 53%
    19:00 +10°C° 0 mm 4 m/S 742 mmHg 57%
    20:00 +9°C° 0 mm 3 m/S 742 mmHg 62%
    21:00 +8°C° 0 mm 3 m/S 742 mmHg 62%
    22:00 +8°C° 0 mm 3 m/S 743 mmHg 62%
    23:00 +8°C° 0 mm 3 m/S 743 mmHg 63%

    23 April, Dienstag

    Zeit Temperatur Niederschläge Wind Luftdruck Luftfeuchtigkeit
    00:00 +7°C° 0 mm 3 m/S 743 mmHg 65%
    01:00 +5°C° 0 mm 3 m/S 743 mmHg 68%
    02:00 +4°C° 0 mm 3 m/S 743 mmHg 71%
    03:00 +4°C° 0 mm 3 m/S 743 mmHg 72%
    04:00 +4°C° 0 mm 3 m/S 743 mmHg 74%
    05:00 +3°C° 0 mm 3 m/S 743 mmHg 76%
    06:00 +5°C° 0 mm 4 m/S 743 mmHg 71%
    07:00 +7°C° 0 mm 4 m/S 744 mmHg 66%
    08:00 +9°C° 0 mm 5 m/S 744 mmHg 61%
    09:00 +10°C° 0 mm 5 m/S 744 mmHg 55%
    10:00 +11°C° 0 mm 6 m/S 744 mmHg 50%
    11:00 +14°C° 0 mm 7 m/S 744 mmHg 45%
    12:00 +14°C° 0 mm 7 m/S 744 mmHg 45%
    13:00 +14°C° 0 mm 6 m/S 743 mmHg 44%
    14:00 +14°C° 0 mm 6 m/S 743 mmHg 44%
    15:00 +14°C° 0 mm 6 m/S 743 mmHg 46%
    16:00 +14°C° 0 mm 6 m/S 743 mmHg 47%
    17:00 +14°C° 0 mm 6 m/S 742 mmHg 48%
    18:00 +11°C° 0 mm 6 m/S 742 mmHg 53%
    19:00 +10°C° 0 mm 5 m/S 742 mmHg 58%
    20:00 +8°C° 0 mm 4 m/S 742 mmHg 63%
    21:00 +8°C° 0 mm 4 m/S 743 mmHg 64%
    22:00 +7°C° 0 mm 4 m/S 743 mmHg 66%
    23:00 +6°C° 0 mm 4 m/S 743 mmHg 68%

    24 April, Mittwoch

    Zeit Temperatur Niederschläge Wind Luftdruck Luftfeuchtigkeit
    00:00 +6°C° 0 mm 4 m/S 743 mmHg 69%
    01:00 +5°C° 0 mm 4 m/S 743 mmHg 71%
    02:00 +5°C° 0 mm 4 m/S 743 mmHg 72%
    03:00 +5°C° 0 mm 4 m/S 743 mmHg 72%
    04:00 +5°C° 0 mm 4 m/S 743 mmHg 72%
    05:00 +4°C° 0 mm 4 m/S 743 mmHg 72%
    06:00 +6°C° 0 mm 5 m/S 743 mmHg 67%
    07:00 +8°C° 0 mm 6 m/S 744 mmHg 61%
    08:00 +9°C° 0 mm 7 m/S 744 mmHg 56%
    09:00 +10°C° 0 mm 7 m/S 744 mmHg 53%
    10:00 +12°C° 0 mm 7 m/S 744 mmHg 50%
    11:00 +14°C° 0 mm 7 m/S 744 mmHg 47%
    12:00 +14°C° 0 mm 7 m/S 744 mmHg 46%
    13:00 +15°C° 0 mm 7 m/S 744 mmHg 45%
    14:00 +15°C° 0 mm 7 m/S 743 mmHg 43%
    15:00 +15°C° 0 mm 6 m/S 743 mmHg 44%
    16:00 +15°C° 0 mm 6 m/S 743 mmHg 45%
    17:00 +15°C° 0 mm 6 m/S 743 mmHg 46%
    18:00 +13°C° 0 mm 5 m/S 743 mmHg 52%
    19:00 +12°C° 0 mm 4 m/S 743 mmHg 57%
    20:00 +10°C° 0 mm 4 m/S 743 mmHg 62%
    21:00 +10°C° 0 mm 3 m/S 743 mmHg 64%
    22:00 +9°C° 0 mm 3 m/S 743 mmHg 66%
    23:00 +8°C° 0 mm 3 m/S 743 mmHg 68%
    Mehr zeigen